K3XY-2 Weather Reports


time (UTC)temp
F
wind
direction
speed
knots
gust
knots
rain 1hr
in
rain 24hr
in
rain mn
in
humidity
%
barometer
mb
20260504231906 68 0 0.0 0.0 0.00 0.00 0.00 43 1008.5
20260504230906 69 0 0.0 0.0 0.00 0.00 0.00 42 1008.4
20260504225906 69 0 0.0 0.0 0.00 0.00 0.00 42 1008.4
20260504224907 69 0 0.0 0.0 0.00 0.00 0.00 41 1008.4
20260504223906 70 0 0.0 0.0 0.00 0.00 0.00 40 1008.4
20260504222906 70 0 0.0 0.0 0.00 0.00 0.00 41 1008.3
20260504221906 70 0 0.0 0.0 0.00 0.00 0.00 40 1008.5
20260504220906 70 0 0.0 0.0 0.00 0.00 0.00 40 1008.5
20260504215907 70 0 0.0 0.0 0.00 0.00 0.00 39 1008.5
20260504214906 71 0 0.0 0.0 0.00 0.00 0.00 39 1008.5
20260504213906 72 0 0.0 0.0 0.00 0.00 0.00 39 1008.6
20260504212906 71 0 0.0 0.0 0.00 0.00 0.00 41 1008.6
20260504211907 71 0 0.0 0.0 0.00 0.00 0.00 40 1008.6
20260504210907 71 0 0.0 0.0 0.00 0.00 0.00 40 1008.6
20260504205906 71 0 0.0 0.0 0.00 0.00 0.00 40 1008.6
20260504204906 72 0 0.0 0.0 0.00 0.00 0.00 45 1008.7
20260504203906 72 0 0.0 0.0 0.00 0.00 0.00 41 1008.6
20260504202907 71 0 0.0 0.0 0.00 0.00 0.00 39 1008.7
20260504201906 72 0 0.0 0.0 0.00 0.00 0.00 40 1008.9
20260504200906 72 0 0.0 0.0 0.00 0.00 0.00 41 1008.9
20260504195906 73 0 0.0 0.0 0.00 0.00 0.00 41 1009.4
20260504194907 73 0 0.0 0.0 0.00 0.00 0.00 40 1009.4
20260504193906 73 0 0.0 0.0 0.00 0.00 0.00 42 1009.5
20260504192906 73 0 0.0 0.0 0.00 0.00 0.00 40 1009.7
20260504191906 72 0 0.0 0.0 0.00 0.00 0.00 41 1009.7
20260504190906 72 0 0.0 0.0 0.00 0.00 0.00 41 1009.9
20260504185906 72 0 0.0 0.0 0.00 0.00 0.00 44 1009.9
20260504184906 72 0 0.0 0.0 0.00 0.00 0.00 42 1010.1
20260504183906 72 0 0.0 0.0 0.00 0.00 0.00 39 1010.2
20260504182906 72 0 0.0 0.0 0.00 0.00 0.00 45 1010.3
20260504181906 72 0 0.0 0.0 0.00 0.00 0.00 41 1010.5
20260504180906 71 0 0.0 0.0 0.00 0.00 0.00 43 1010.7
20260504175906 71 0 0.0 0.0 0.00 0.00 0.00 37 1010.9
20260504174906 72 0 0.0 0.0 0.00 0.00 0.00 40 1011.0
20260504173906 71 0 0.0 0.0 0.00 0.00 0.00 41 1011.1
20260504172906 70 0 0.0 0.0 0.00 0.00 0.00 41 1011.3
20260504170905 70 0 0.0 0.0 0.00 0.00 0.00 43 1011.5
20260504150906 66 0 0.0 0.0 0.00 0.00 0.00 45 1013.1
20260504140906 0 0.0 0.0 0.00 0.00 0.00 1013.3
20260504081906 0 0.0 0.0 0.00 0.00 0.00 1013.8
20260504080905 43 0.0 0.0 0.00 0.00 0.00 1013.9
20260504045905 45 0 0.0 0.0 0.00 0.00 0.00 63 1014.2
20260504044906 45 0 0.0 0.0 0.00 0.00 0.00 63 1014.3
20260504043906 45 0 0.0 0.0 0.00 0.00 0.00 63 1014.2
20260504042905 45 0 0.0 0.0 0.00 0.00 0.00 62 1014.1
20260504041905 46 0 0.0 0.0 0.00 0.00 0.00 62 1013.9
20260504040905 46 0 0.0 0.0 0.00 0.00 0.00 62 1013.8
20260504035905 46 0 0.0 0.0 0.00 0.00 0.00 61 1013.8
20260504034905 46 0 0.0 0.0 0.00 0.00 0.00 61 1013.7
20260504033905 46 0 0.0 0.0 0.00 0.00 0.00 60 1013.7
20260504032906 47 0 0.0 0.0 0.00 0.00 0.00 59 1013.6
20260504031905 47 0 0.0 0.0 0.00 0.00 0.00 59 1013.6
20260504030905 47 0 0.0 0.0 0.00 0.00 0.00 59 1013.6
20260504025905 47 0 0.0 0.0 0.00 0.00 0.00 58 1013.6
20260504024906 47 0 0.0 0.0 0.00 0.00 0.00 58 1013.5
20260504023905 47 0 0.0 0.0 0.00 0.00 0.00 58 1013.6
20260504022905 48 0 0.0 0.0 0.00 0.00 0.00 58 1013.7
20260504021905 48 0 0.0 0.0 0.00 0.00 0.00 57 1013.7
20260504020905 48 0 0.0 0.0 0.00 0.00 0.00 57 1013.6
20260504015905 49 0 0.0 0.0 0.00 0.00 0.00 56 1013.6
20260504014905 49 0 0.0 0.0 0.00 0.00 0.00 55 1013.5
20260504013905 49 0 0.0 0.0 0.00 0.00 0.00 54 1013.4
20260504012906 50 0 0.0 0.0 0.00 0.00 0.00 54 1013.4
20260504011905 50 0 0.0 0.0 0.00 0.00 0.00 52 1013.2
20260504010905 51 0 0.0 0.0 0.00 0.00 0.00 52 1013.2
20260504005905 51 0 0.0 0.0 0.00 0.00 0.00 51 1013.1
20260504004905 52 0 0.0 0.0 0.00 0.00 0.00 50 1013.0
20260504003905 53 0 0.0 0.0 0.00 0.00 0.00 49 1012.8
20260504002905 53 0 0.0 0.0 0.00 0.00 0.00 48 1012.6
20260504001905 54 0 0.0 0.0 0.00 0.00 0.00 47 1012.4
20260504000905 54 0 0.0 0.0 0.00 0.00 0.00 47 1012.3
20260503235905 55 0 0.0 0.0 0.00 0.00 0.00 46 1012.2
20260503234905 55 0 0.0 0.0 0.00 0.00 0.00 47 1012.1
20260503233905 56 0 0.0 0.0 0.00 0.00 0.00 44 1012.0
20260503232905 56 0 0.0 0.0 0.00 0.00 0.00 43 1011.9